StationID,Date,MaxTemp,MinTemp,Precipitation,Snowfall,SnowDepth
"CA004057172","1977-05-01",64.04,26.96,0.00,0.00,
"CA004057172","1977-05-02",71.96,37.04,0.00,0.00,
"CA004057172","1977-05-03",78.08,44.06,0.00,0.00,
"CA004057172","1977-05-04",77.00,51.08,439.00,0.00,
"CA004057172","1977-05-05",44.06,42.08,86.00,0.00,
"CA004057172","1977-05-06",53.96,35.96,0.00,0.00,
"CA004057172","1977-05-07",69.98,35.96,0.00,0.00,
"CA004057172","1977-05-08",82.94,46.94,0.00,0.00,
"CA004057172","1977-05-09",82.94,59.00,122.00,0.00,
"CA004057172","1977-05-10",82.94,59.00,5.00,0.00,
"CA004057172","1977-05-11",78.08,62.06,0.00,0.00,
"CA004057172","1977-05-12",82.04,46.04,0.00,0.00,
"CA004057172","1977-05-13",80.06,50.00,0.00,0.00,
"CA004057172","1977-05-14",80.06,48.92,20.00,0.00,
"CA004057172","1977-05-15",64.94,55.04,119.00,0.00,
"CA004057172","1977-05-16",53.06,46.94,56.00,0.00,
"CA004057172","1977-05-17",51.08,44.06,56.00,0.00,
"CA004057172","1977-05-18",50.00,42.98,99.00,0.00,
"CA004057172","1977-05-19",46.04,42.08,124.00,0.00,
"CA004057172","1977-05-20",62.06,39.02,8.00,0.00,
"CA004057172","1977-05-21",73.04,39.92,0.00,0.00,
"CA004057172","1977-05-22",73.04,46.94,13.00,0.00,
"CA004057172","1977-05-23",78.98,48.02,13.00,0.00,
"CA004057172","1977-05-24",75.02,57.02,272.00,0.00,
"CA004057172","1977-05-25",77.00,59.00,112.00,0.00,
"CA004057172","1977-05-26",71.96,53.06,0.00,0.00,
"CA004057172","1977-05-27",71.96,48.92,20.00,0.00,
"CA004057172","1977-05-28",66.02,53.06,0.00,0.00,
"CA004057172","1977-05-29",66.92,42.08,33.00,0.00,
"CA004057172","1977-05-30",73.04,42.08,0.00,0.00,
"CA004057172","1977-05-31",77.00,44.96,0.00,0.00,
"CA004057172","1977-06-01",78.08,46.94,0.00,0.00,
"CA004057172","1977-06-02",73.94,60.08,25.00,0.00,
"CA004057172","1977-06-03",71.96,42.08,0.00,0.00,
"CA004057172","1977-06-04",78.98,53.06,0.00,0.00,
"CA004057172","1977-06-05",80.06,48.92,0.00,0.00,
"CA004057172","1977-06-06",87.08,50.00,0.00,0.00,
"CA004057172","1977-06-07",87.98,55.04,0.00,0.00,
"CA004057172","1977-06-08",78.98,60.08,18.00,0.00,
"CA004057172","1977-06-09",78.98,57.92,0.00,0.00,
"CA004057172","1977-06-10",60.98,51.98,0.00,0.00,
"CA004057172","1977-06-11",64.94,41.00,0.00,0.00,
"CA004057172","1977-06-12",71.96,48.92,0.00,0.00,
"CA004057172","1977-06-13",71.06,42.98,0.00,0.00,
"CA004057172","1977-06-14",62.06,48.92,102.00,0.00,
"CA004057172","1977-06-15",69.08,53.96,0.00,0.00,
"CA004057172","1977-06-16",73.94,48.92,0.00,0.00,
"CA004057172","1977-06-17",77.00,51.08,15.00,0.00,
"CA004057172","1977-06-18",75.02,48.02,0.00,0.00,
"CA004057172","1977-06-19",73.94,46.04,0.00,0.00,
"CA004057172","1977-06-20",80.06,48.92,0.00,0.00,
"CA004057172","1977-06-21",80.06,57.02,0.00,0.00,
"CA004057172","1977-06-22",89.06,55.94,10.00,0.00,
"CA004057172","1977-06-23",78.98,55.04,0.00,0.00,
"CA004057172","1977-06-24",91.04,51.98,0.00,0.00,
"CA004057172","1977-06-25",82.04,55.94,20.00,0.00,
"CA004057172","1977-06-26",75.02,48.02,0.00,0.00,
"CA004057172","1977-06-27",75.92,53.96,0.00,0.00,
"CA004057172","1977-06-28",80.06,46.04,3.00,0.00,
"CA004057172","1977-06-29",71.06,55.04,0.00,0.00,
"CA004057172","1977-06-30",75.92,50.00,0.00,0.00,
"CA004057172","1977-07-01",82.04,44.96,0.00,0.00,
"CA004057172","1977-07-02",78.98,62.96,0.00,0.00,
"CA004057172","1977-07-03",78.08,48.02,0.00,0.00,
"CA004057172","1977-07-04",84.02,55.04,0.00,0.00,
"CA004057172","1977-07-05",77.00,60.08,8.00,0.00,
"CA004057172","1977-07-06",75.02,51.98,10.00,0.00,
"CA004057172","1977-07-07",66.02,48.02,15.00,0.00,
"CA004057172","1977-07-08",73.04,46.04,0.00,0.00,
"CA004057172","1977-07-09",80.96,50.00,97.00,0.00,
"CA004057172","1977-07-10",69.98,57.02,5.00,0.00,
"CA004057172","1977-07-11",77.00,57.02,0.00,0.00,
"CA004057172","1977-07-12",80.96,57.02,0.00,0.00,
"CA004057172","1977-07-13",66.92,51.98,5.00,0.00,
"CA004057172","1977-07-14",75.92,46.04,0.00,0.00,
"CA004057172","1977-07-15",82.04,55.04,3.00,0.00,
"CA004057172","1977-07-16",73.04,53.96,0.00,0.00,
"CA004057172","1977-07-17",82.94,57.02,0.00,0.00,
"CA004057172","1977-07-18",82.04,55.94,0.00,0.00,
"CA004057172","1977-07-19",73.94,48.02,30.00,0.00,
"CA004057172","1977-07-20",78.08,44.96,0.00,0.00,
"CA004057172","1977-07-21",89.06,48.92,0.00,0.00,
"CA004057172","1977-07-22",89.06,66.02,0.00,0.00,
"CA004057172","1977-07-23",80.96,55.04,104.00,0.00,
"CA004057172","1977-07-24",75.02,51.08,0.00,0.00,
"CA004057172","1977-07-25",77.00,51.08,0.00,0.00,
"CA004057172","1977-07-26",77.00,53.06,0.00,0.00,
"CA004057172","1977-07-27",84.02,53.06,0.00,0.00,
"CA004057172","1977-07-28",75.92,55.04,97.00,0.00,
"CA004057172","1977-07-29",73.04,55.94,18.00,0.00,
"CA004057172","1977-07-30",66.92,55.04,15.00,0.00,
"CA004057172","1977-07-31",75.92,48.92,33.00,0.00,
"CA004057172","1977-08-01",71.96,51.98,20.00,0.00,
"CA004057172","1977-08-02",71.06,51.08,28.00,0.00,
"CA004057172","1977-08-03",71.06,50.00,91.00,0.00,
"CA004057172","1977-08-04",64.04,48.02,0.00,0.00,
"CA004057172","1977-08-05",75.02,46.04,5.00,0.00,
"CA004057172","1977-08-06",66.02,53.06,3.00,0.00,
"CA004057172","1977-08-07",69.98,46.04,0.00,0.00,
"CA004057172","1977-08-08",73.04,53.06,97.00,0.00,
"CA004057172","1977-08-09",60.08,48.92,8.00,0.00,
"CA004057172","1977-08-10",66.92,46.04,0.00,0.00,
"CA004057172","1977-08-11",69.98,42.08,0.00,0.00,
"CA004057172","1977-08-12",66.92,46.94,0.00,0.00,
"CA004057172","1977-08-13",62.06,41.00,0.00,0.00,
"CA004057172","1977-08-14",66.02,44.96,0.00,0.00,
"CA004057172","1977-08-15",71.06,37.94,8.00,0.00,
"CA004057172","1977-08-16",66.92,39.02,0.00,0.00,
"CA004057172","1977-08-17",75.92,41.00,0.00,0.00,
"CA004057172","1977-08-18",78.08,46.94,0.00,0.00,
"CA004057172","1977-08-19",,48.92,0.00,0.00,
"CA004057172","1977-08-20",,,0.00,0.00,
"CA004057172","1977-08-21",,,0.00,0.00,
"CA004057172","1977-08-22",,,0.00,0.00,
"CA004057172","1977-08-23",,,0.00,0.00,
"CA004057172","1977-08-24",,,0.00,0.00,
"CA004057172","1977-08-25",,,0.00,0.00,
"CA004057172","1977-08-26",,,0.00,0.00,
"CA004057172","1977-08-27",,,0.00,0.00,
"CA004057172","1977-08-28",,,0.00,0.00,
"CA004057172","1977-08-29",,,0.00,0.00,
"CA004057172","1977-08-30",,,0.00,0.00,
"CA004057172","1977-08-31",,,0.00,0.00,
"CA004057172","1977-09-01",51.80,44.60,,0.00,
"CA004057172","1977-09-02",64.40,35.60,,0.00,
"CA004057172","1977-09-03",62.60,48.20,0.00,0.00,
"CA004057172","1977-09-04",57.92,48.02,5.00,0.00,
"CA004057172","1977-09-05",57.02,50.00,30.00,0.00,
"CA004057172","1977-09-06",66.92,46.94,8.00,0.00,
"CA004057172","1977-09-07",68.00,42.98,33.00,0.00,
"CA004057172","1977-09-08",64.04,51.08,0.00,0.00,
"CA004057172","1977-09-09",66.02,37.04,58.00,0.00,
"CA004057172","1977-09-10",64.04,37.94,10.00,0.00,
"CA004057172","1977-09-11",62.06,35.06,0.00,0.00,
"CA004057172","1977-09-12",66.92,37.04,20.00,0.00,
"CA004057172","1977-09-13",75.92,37.94,0.00,0.00,
"CA004057172","1977-09-14",64.04,48.92,0.00,0.00,
"CA004057172","1977-09-15",55.04,44.96,0.00,0.00,
"CA004057172","1977-09-16",53.96,44.06,0.00,0.00,
"CA004057172","1977-09-17",53.06,46.04,0.00,0.00,
"CA004057172","1977-09-18",53.96,44.06,0.00,0.00,
"CA004057172","1977-09-19",71.96,37.04,0.00,0.00,
"CA004057172","1977-09-20",62.96,46.94,33.00,0.00,
"CA004057172","1977-09-21",69.08,48.02,28.00,0.00,
"CA004057172","1977-09-22",62.06,48.92,3.00,0.00,
"CA004057172","1977-09-23",62.06,42.98,8.00,0.00,
"CA004057172","1977-09-24",57.92,46.94,94.00,0.00,
"CA004057172","1977-09-25",50.00,48.02,61.00,0.00,
"CA004057172","1977-09-26",51.08,42.08,23.00,0.00,
"CA004057172","1977-09-27",53.96,39.02,5.00,0.00,
"CA004057172","1977-09-28",60.98,30.92,5.00,0.00,
"CA004057172","1977-09-29",59.00,33.98,0.00,0.00,
"CA004057172","1977-09-30",57.02,39.92,0.00,0.00,
"CA004057172","1977-10-01",59.00,35.06,0.00,0.00,
"CA004057172","1977-10-02",57.02,35.96,0.00,0.00,
"CA004057172","1977-10-03",51.98,35.06,0.00,0.00,
"CA004057172","1977-10-04",39.92,30.92,10.00,10.00,
"CA004057172","1977-10-05",42.98,33.08,0.00,0.00,
"CA004057172","1977-10-06",46.04,35.96,0.00,0.00,
"CA004057172","1977-10-07",44.96,33.08,0.00,0.00,
"CA004057172","1977-10-08",55.04,33.08,0.00,0.00,
"CA004057172","1977-10-09",39.92,32.00,28.00,28.00,
"CA004057172","1977-10-10",35.96,32.00,3.00,3.00,
"CA004057172","1977-10-11",50.00,21.02,0.00,0.00,
"CA004057172","1977-10-12",68.00,33.98,0.00,0.00,
"CA004057172","1977-10-13",57.92,42.98,0.00,0.00,
"CA004057172","1977-10-14",55.94,28.94,0.00,0.00,
"CA004057172","1977-10-15",62.96,28.04,0.00,0.00,
"CA004057172","1977-10-16",57.92,37.94,0.00,0.00,
"CA004057172","1977-10-17",55.94,30.92,0.00,0.00,
"CA004057172","1977-10-18",73.04,35.06,0.00,0.00,
"CA004057172","1977-10-19",60.98,28.94,0.00,0.00,
"CA004057172","1977-10-20",51.08,35.96,0.00,0.00,
"CA004057172","1977-10-21",50.00,17.06,0.00,0.00,
"CA004057172","1977-10-22",57.92,19.94,0.00,0.00,
"CA004057172","1977-10-23",73.04,33.98,0.00,0.00,
"CA004057172","1977-10-24",53.96,35.06,0.00,0.00,
"CA004057172","1977-10-25",55.04,37.94,0.00,0.00,
"CA004057172","1977-10-26",57.02,32.00,0.00,0.00,
"CA004057172","1977-10-27",55.04,26.06,0.00,0.00,
"CA004057172","1977-10-28",57.02,28.94,0.00,0.00,
"CA004057172","1977-10-29",62.96,35.06,0.00,0.00,
"CA004057172","1977-10-30",50.00,37.04,0.00,0.00,
"CA004057172","1977-10-31",48.92,35.96,0.00,0.00,
"CA004057172","1977-11-01",51.98,21.92,10.00,0.00,
"CA004057172","1977-11-02",48.02,26.96,0.00,0.00,
"CA004057172","1977-11-03",46.04,24.08,0.00,0.00,
"CA004057172","1977-11-04",41.00,24.98,0.00,0.00,
"CA004057172","1977-11-05",39.92,17.06,5.00,0.00,
"CA004057172","1977-11-06",42.98,24.98,0.00,0.00,
"CA004057172","1977-11-07",39.02,26.06,20.00,20.00,
"CA004057172","1977-11-08",33.98,17.06,0.00,0.00,
"CA004057172","1977-11-09",33.08,12.92,0.00,0.00,
"CA004057172","1977-11-10",33.98,10.04,0.00,0.00,
"CA004057172","1977-11-11",42.08,14.00,0.00,0.00,
"CA004057172","1977-11-12",55.94,21.02,0.00,0.00,
"CA004057172","1977-11-13",46.04,23.00,0.00,0.00,
"CA004057172","1977-11-14",48.02,26.96,8.00,0.00,
"CA004057172","1977-11-15",42.08,26.06,0.00,0.00,
"CA004057172","1977-11-16",41.00,17.06,0.00,0.00,
"CA004057172","1977-11-17",24.08,17.06,13.00,13.00,
"CA004057172","1977-11-18",21.02,19.04,23.00,23.00,
"CA004057172","1977-11-19",12.92,3.92,0.00,0.00,
"CA004057172","1977-11-20",5.00,1.04,0.00,0.00,
"CA004057172","1977-11-21",3.02,-14.98,0.00,0.00,
"CA004057172","1977-11-22",3.02,-11.02,0.00,0.00,
"CA004057172","1977-11-23",-5.08,-14.98,0.00,0.00,
"CA004057172","1977-11-24",-2.02,-20.92,0.00,0.00,
"CA004057172","1977-11-25",12.92,-16.96,33.00,33.00,
"CA004057172","1977-11-26",19.94,-9.94,5.00,5.00,
"CA004057172","1977-11-27",21.92,10.04,0.00,0.00,
"CA004057172","1977-11-28",32.00,3.02,0.00,0.00,
"CA004057172","1977-11-29",39.92,5.00,38.00,23.00,
"CA004057172","1977-11-30",24.08,19.04,18.00,18.00,
"CA004057172","1977-12-01",12.02,3.92,0.00,0.00,
"CA004057172","1977-12-02",6.98,-5.98,0.00,0.00,
"CA004057172","1977-12-03",8.06,-5.08,91.00,91.00,
"CA004057172","1977-12-04",-4.00,-7.06,0.00,0.00,
"CA004057172","1977-12-05",-16.96,-23.08,0.00,0.00,
"CA004057172","1977-12-06",-16.96,-31.00,8.00,8.00,
"CA004057172","1977-12-07",-16.06,-27.94,10.00,10.00,
"CA004057172","1977-12-08",-25.06,-31.00,0.00,0.00,
"CA004057172","1977-12-09",-25.96,-40.00,0.00,0.00,
"CA004057172","1977-12-10",3.92,-38.02,0.00,0.00,
"CA004057172","1977-12-11",12.02,-27.04,0.00,0.00,
"CA004057172","1977-12-12",10.94,3.02,3.00,3.00,
"CA004057172","1977-12-13",12.02,5.00,0.00,0.00,
"CA004057172","1977-12-14",15.98,5.00,0.00,0.00,
"CA004057172","1977-12-15",21.92,6.08,30.00,30.00,
"CA004057172","1977-12-16",24.08,15.98,66.00,66.00,
"CA004057172","1977-12-17",15.98,12.02,23.00,23.00,
"CA004057172","1977-12-18",15.98,10.94,36.00,36.00,
"CA004057172","1977-12-19",5.00,-0.04,0.00,0.00,
"CA004057172","1977-12-20",8.06,-14.08,0.00,0.00,
"CA004057172","1977-12-21",12.92,-11.92,0.00,0.00,
"CA004057172","1977-12-22",10.04,-0.94,3.00,3.00,
"CA004057172","1977-12-23",10.04,-7.06,13.00,13.00,
"CA004057172","1977-12-24",-2.92,-11.02,0.00,0.00,
"CA004057172","1977-12-25",1.04,-20.02,0.00,0.00,
"CA004057172","1977-12-26",15.98,-16.06,3.00,3.00,
"CA004057172","1977-12-27",21.92,-13.00,3.00,3.00,
"CA004057172","1977-12-28",19.04,12.92,10.00,10.00,
"CA004057172","1977-12-29",1.04,-0.94,0.00,0.00,
"CA004057172","1977-12-30",-0.04,-23.08,5.00,5.00,
"CA004057172","1977-12-31",6.98,-20.92,3.00,3.00,
"CA004057172","1978-01-01",17.96,-4.00,0.00,0.00,
"CA004057172","1978-01-02",12.02,3.92,3.00,3.00,
"CA004057172","1978-01-03",12.02,-4.00,5.00,5.00,
"CA004057172","1978-01-04",1.94,-2.02,18.00,18.00,
"CA004057172","1978-01-05",-0.94,-9.04,61.00,61.00,
"CA004057172","1978-01-06",-4.00,-7.06,3.00,3.00,
"CA004057172","1978-01-07",-14.98,-20.92,0.00,0.00,
"CA004057172","1978-01-08",-13.00,-27.94,0.00,0.00,
"CA004057172","1978-01-09",-14.08,-25.96,0.00,0.00,
"CA004057172","1978-01-10",-5.98,-25.96,0.00,0.00,
"CA004057172","1978-01-11",-0.04,-14.98,0.00,0.00,
"CA004057172","1978-01-12",-0.04,-14.08,30.00,30.00,
"CA004057172","1978-01-13",10.94,-9.94,3.00,3.00,
"CA004057172","1978-01-14",12.02,-2.92,3.00,3.00,
"CA004057172","1978-01-15",-5.98,-14.98,0.00,0.00,
"CA004057172","1978-01-16",-9.94,-34.06,0.00,0.00,
"CA004057172","1978-01-17",-9.04,-27.04,0.00,0.00,
"CA004057172","1978-01-18",-16.96,-32.08,0.00,0.00,
"CA004057172","1978-01-19",1.04,-29.92,0.00,0.00,
"CA004057172","1978-01-20",-2.02,-25.06,0.00,0.00,
"CA004057172","1978-01-21",12.02,-14.98,0.00,0.00,
"CA004057172","1978-01-22",33.98,-2.92,5.00,5.00,
"CA004057172","1978-01-23",28.04,8.06,0.00,0.00,
"CA004057172","1978-01-24",19.04,12.02,3.00,3.00,
"CA004057172","1978-01-25",-9.94,-23.98,0.00,0.00,
"CA004057172","1978-01-26",-9.04,-23.08,0.00,0.00,
"CA004057172","1978-01-27",-9.94,-27.94,0.00,0.00,
"CA004057172","1978-01-28",-5.08,-25.96,0.00,0.00,
"CA004057172","1978-01-29",-0.94,-23.98,3.00,3.00,
"CA004057172","1978-01-30",-0.04,-18.94,5.00,5.00,
"CA004057172","1978-01-31",-5.08,-9.94,0.00,0.00,
"CA004057172","1978-02-01",3.20,-27.40,0.00,0.00,
"CA004057172","1978-02-02",-4.90,-23.80,0.00,0.00,
"CA004057172","1978-02-03",2.30,-10.30,4.00,4.00,
"CA004057172","1978-02-04",2.30,-19.30,0.00,0.00,
"CA004057172","1978-02-05",10.40,0.50,0.00,0.00,
"CA004057172","1978-02-06",10.40,6.80,0.00,0.00,
"CA004057172","1978-02-07",10.40,0.50,12.00,12.00,
"CA004057172","1978-02-08",10.40,6.80,0.00,0.00,
"CA004057172","1978-02-09",15.80,-2.20,2.00,2.00,
"CA004057172","1978-02-10",11.30,4.10,4.00,4.00,
"CA004057172","1978-02-11",14.00,-7.60,0.00,0.00,
"CA004057172","1978-02-12",16.70,-8.50,0.00,0.00,
"CA004057172","1978-02-13",17.60,-6.70,0.00,0.00,
"CA004057172","1978-02-14",8.60,-8.50,0.00,0.00,
"CA004057172","1978-02-15",5.90,-11.20,0.00,0.00,
"CA004057172","1978-02-16",1.40,-11.20,0.00,0.00,
"CA004057172","1978-02-17",14.00,-14.80,0.00,0.00,
"CA004057172","1978-02-18",30.20,-9.40,0.00,0.00,
"CA004057172","1978-02-19",30.20,6.80,0.00,0.00,
"CA004057172","1978-02-20",29.30,5.00,0.00,0.00,
"CA004057172","1978-02-21",34.70,7.70,6.00,0.00,
"CA004057172","1978-02-22",37.40,15.80,0.00,0.00,
"CA004057172","1978-02-23",35.60,23.00,0.00,0.00,
"CA004057172","1978-02-24",23.00,6.80,30.00,30.00,
"CA004057172","1978-02-25",11.30,-9.40,0.00,0.00,
"CA004057172","1978-02-26",7.70,-7.60,0.00,0.00,
"CA004057172","1978-02-27",8.60,-8.50,0.00,0.00,
"CA004057172","1978-02-28",7.70,-13.90,0.00,0.00,
"CA004057172","1978-03-01",8.60,-17.50,0.00,0.00,
"CA004057172","1978-03-02",8.60,-11.20,0.00,0.00,
"CA004057172","1978-03-03",7.70,-16.60,0.00,0.00,
"CA004057172","1978-03-04",5.90,-13.90,0.00,0.00,
"CA004057172","1978-03-05",9.50,-15.70,0.00,0.00,
"CA004057172","1978-03-06",17.60,-10.30,0.00,0.00,
"CA004057172","1978-03-07",36.50,-5.80,0.00,0.00,
"CA004057172","1978-03-08",39.20,11.30,0.00,0.00,
"CA004057172","1978-03-09",41.00,22.10,0.00,0.00,
"CA004057172","1978-03-10",39.20,23.00,3.00,3.00,
"CA004057172","1978-03-11",26.60,23.00,4.00,4.00,
"CA004057172","1978-03-12",22.10,-1.30,0.00,0.00,
"CA004057172","1978-03-13",32.00,9.50,0.00,0.00,
"CA004057172","1978-03-14",32.90,14.90,0.00,0.00,
"CA004057172","1978-03-15",28.40,17.60,0.00,0.00,
"CA004057172","1978-03-16",30.20,4.10,0.00,0.00,
"CA004057172","1978-03-17",41.00,7.70,2.00,2.00,
"CA004057172","1978-03-18",41.00,26.60,0.00,0.00,
"CA004057172","1978-03-19",40.10,21.20,0.00,0.00,
"CA004057172","1978-03-20",44.60,28.40,0.00,0.00,
"CA004057172","1978-03-21",45.50,28.40,0.00,0.00,
"CA004057172","1978-03-22",35.60,22.10,0.00,0.00,
"CA004057172","1978-03-23",37.40,18.50,0.00,0.00,
"CA004057172","1978-03-24",38.30,24.80,0.00,0.00,
"CA004057172","1978-03-25",41.00,32.00,0.00,0.00,
"CA004057172","1978-03-26",42.80,30.20,0.00,0.00,
"CA004057172","1978-03-27",48.20,32.00,0.00,0.00,
"CA004057172","1978-03-28",46.40,23.00,0.00,0.00,
"CA004057172","1978-03-29",54.50,32.00,0.00,0.00,
"CA004057172","1978-03-30",45.50,35.60,8.00,5.00,
"CA004057172","1978-03-31",39.20,28.40,0.00,0.00,
"CA004057172","1978-04-01",34.70,24.80,18.00,18.00,
"CA004057172","1978-04-02",36.50,24.80,14.00,14.00,
"CA004057172","1978-04-03",36.50,28.40,4.00,4.00,
"CA004057172","1978-04-04",49.10,28.40,0.00,0.00,
"CA004057172","1978-04-05",46.40,31.10,34.00,24.00,
"CA004057172","1978-04-06",30.20,16.70,0.00,0.00,
"CA004057172","1978-04-07",47.30,17.60,0.00,0.00,
"CA004057172","1978-04-08",50.90,28.40,0.00,0.00,
"CA004057172","1978-04-09",50.00,34.70,0.00,0.00,
"CA004057172","1978-04-10",53.60,30.20,0.00,0.00,
"CA004057172","1978-04-11",53.60,34.70,65.00,65.00,
"CA004057172","1978-04-12",37.40,25.70,0.00,0.00,
"CA004057172","1978-04-13",40.10,21.20,0.00,0.00,
"CA004057172","1978-04-14",39.20,23.00,0.00,0.00,
"CA004057172","1978-04-15",48.20,24.80,0.00,0.00,
"CA004057172","1978-04-16",41.90,32.00,0.00,0.00,
"CA004057172","1978-04-17",42.80,37.40,0.00,0.00,
"CA004057172","1978-04-18",44.60,32.90,0.00,0.00,
"CA004057172","1978-04-19",47.30,23.90,0.00,0.00,
"CA004057172","1978-04-20",53.60,23.00,0.00,0.00,
"CA004057172","1978-04-21",59.90,28.40,6.00,0.00,
"CA004057172","1978-04-22",44.60,41.00,76.00,0.00,
"CA004057172","1978-04-23",42.80,38.30,62.00,0.00,
"CA004057172","1978-04-24",50.00,37.40,6.00,0.00,
"CA004057172","1978-04-25",66.20,31.10,2.00,0.00,
"CA004057172","1978-04-26",69.80,37.40,0.00,0.00,
"CA004057172","1978-04-27",74.30,43.70,0.00,0.00,
"CA004057172","1978-04-28",77.00,46.40,0.00,0.00,
"CA004057172","1978-04-29",69.80,48.20,0.00,0.00,
"CA004057172","1978-04-30",73.40,47.30,0.00,0.00,
"CA004057172","1978-05-01",71.60,45.50,5.00,0.00,
"CA004057172","1978-05-02",75.20,46.40,0.00,0.00,
"CA004057172","1978-05-03",53.60,50.00,0.00,0.00,
"CA004057172","1978-05-04",63.50,33.80,0.00,0.00,
"CA004057172","1978-05-05",55.40,41.90,0.00,0.00,
"CA004057172","1978-05-06",59.00,40.10,0.00,0.00,
"CA004057172","1978-05-07",62.60,38.30,0.00,0.00,
"CA004057172","1978-05-08",67.10,41.00,0.00,0.00,
"CA004057172","1978-05-09",69.80,40.10,0.00,0.00,
"CA004057172","1978-05-10",59.00,41.00,0.00,0.00,
"CA004057172","1978-05-11",54.50,34.70,0.00,0.00,
"CA004057172","1978-05-12",65.30,36.50,0.00,0.00,
"CA004057172","1978-05-13",70.70,35.60,0.00,0.00,
"CA004057172","1978-05-14",77.90,50.90,0.00,0.00,
"CA004057172","1978-05-15",82.40,47.30,16.00,0.00,
"CA004057172","1978-05-16",76.10,53.60,0.00,0.00,
"CA004057172","1978-05-17",60.80,41.90,0.00,0.00,
"CA004057172","1978-05-18",68.00,41.90,0.00,0.00,
"CA004057172","1978-05-19",74.30,37.40,0.00,0.00,
"CA004057172","1978-05-20",80.60,43.70,0.00,0.00,
"CA004057172","1978-05-21",85.10,48.20,0.00,0.00,
"CA004057172","1978-05-22",86.00,53.60,0.00,0.00,
"CA004057172","1978-05-23",73.40,55.40,0.00,0.00,
"CA004057172","1978-05-24",59.90,48.20,242.00,0.00,
"CA004057172","1978-05-25",68.90,46.40,4.00,0.00,
"CA004057172","1978-05-26",68.00,41.90,0.00,0.00,
"CA004057172","1978-05-27",74.30,41.00,0.00,0.00,
"CA004057172","1978-05-28",77.90,42.80,0.00,0.00,
"CA004057172","1978-05-29",64.40,44.60,0.00,0.00,
"CA004057172","1978-05-30",53.60,34.70,72.00,0.00,
"CA004057172","1978-05-31",57.20,42.80,6.00,0.00,
"CA004057172","1978-06-01",66.20,41.00,6.00,0.00,
"CA004057172","1978-06-02",73.40,45.50,0.00,0.00,
"CA004057172","1978-06-03",82.40,46.40,0.00,0.00,
"CA004057172","1978-06-04",87.80,48.20,46.00,0.00,
"CA004057172","1978-06-05",87.80,56.30,4.00,0.00,
"CA004057172","1978-06-06",64.40,47.30,0.00,0.00,
"CA004057172","1978-06-07",71.60,45.50,2.00,0.00,
"CA004057172","1978-06-08",69.80,46.40,2.00,0.00,
"CA004057172","1978-06-09",76.10,50.90,22.00,0.00,
"CA004057172","1978-06-10",69.80,50.90,68.00,0.00,
"CA004057172","1978-06-11",63.50,48.20,0.00,0.00,
"CA004057172","1978-06-12",69.80,39.20,0.00,0.00,
"CA004057172","1978-06-13",77.00,52.70,76.00,0.00,
"CA004057172","1978-06-14",77.90,50.90,0.00,0.00,
"CA004057172","1978-06-15",77.00,50.00,16.00,0.00,
"CA004057172","1978-06-16",71.60,49.10,0.00,0.00,
"CA004057172","1978-06-17",77.90,37.40,0.00,0.00,
"CA004057172","1978-06-18",76.10,53.60,0.00,0.00,
"CA004057172","1978-06-19",66.20,46.40,0.00,0.00,
"CA004057172","1978-06-20",77.90,40.10,0.00,0.00,
"CA004057172","1978-06-21",86.00,50.00,4.00,0.00,
"CA004057172","1978-06-22",86.00,56.30,26.00,0.00,
"CA004057172","1978-06-23",74.30,55.40,2.00,0.00,
"CA004057172","1978-06-24",78.80,52.70,0.00,0.00,
"CA004057172","1978-06-25",78.80,54.50,0.00,0.00,
"CA004057172","1978-06-26",80.60,50.90,38.00,0.00,
"CA004057172","1978-06-27",80.60,56.30,0.00,0.00,
"CA004057172","1978-06-28",89.60,51.80,0.00,0.00,
"CA004057172","1978-06-29",90.50,61.70,4.00,0.00,
"CA004057172","1978-06-30",87.80,62.60,2.00,0.00,
"CA004057172","1978-07-01",83.30,62.60,40.00,0.00,
"CA004057172","1978-07-02",83.30,50.90,0.00,0.00,
"CA004057172","1978-07-03",82.40,49.10,0.00,0.00,
"CA004057172","1978-07-04",87.80,52.70,0.00,0.00,
"CA004057172","1978-07-05",79.70,59.00,0.00,0.00,
"CA004057172","1978-07-06",68.90,52.70,0.00,0.00,
"CA004057172","1978-07-07",62.60,45.50,20.00,0.00,
"CA004057172","1978-07-08",66.20,48.20,0.00,0.00,
"CA004057172","1978-07-09",77.00,41.00,0.00,0.00,
"CA004057172","1978-07-10",80.60,47.30,60.00,0.00,
"CA004057172","1978-07-11",77.90,57.20,5.00,0.00,
"CA004057172","1978-07-12",72.50,57.20,14.00,0.00,
"CA004057172","1978-07-13",79.70,54.50,0.00,0.00,
"CA004057172","1978-07-14",84.20,54.50,20.00,0.00,
"CA004057172","1978-07-15",87.80,55.40,24.00,0.00,
"CA004057172","1978-07-16",85.10,61.70,112.00,0.00,
"CA004057172","1978-07-17",73.40,59.90,0.00,0.00,
"CA004057172","1978-07-18",68.90,47.30,6.00,0.00,
"CA004057172","1978-07-19",68.00,44.60,0.00,0.00,
"CA004057172","1978-07-20",71.60,49.10,26.00,0.00,
"CA004057172","1978-07-21",74.30,44.60,42.00,0.00,
"CA004057172","1978-07-22",75.20,55.40,4.00,0.00,
"CA004057172","1978-07-23",87.80,51.80,0.00,0.00,
"CA004057172","1978-07-24",86.00,57.20,0.00,0.00,
"CA004057172","1978-07-25",82.40,60.80,0.00,0.00,
"CA004057172","1978-07-26",78.80,51.80,202.00,0.00,
"CA004057172","1978-07-27",87.80,59.00,0.00,0.00,
"CA004057172","1978-07-28",71.60,57.20,0.00,0.00,
"CA004057172","1978-07-29",80.60,53.60,2.00,0.00,
"CA004057172","1978-07-30",75.20,51.80,0.00,0.00,
"CA004057172","1978-07-31",75.20,50.00,84.00,0.00,
"CA004057172","1978-08-01",60.80,46.40,0.00,0.00,
"CA004057172","1978-08-02",62.60,39.20,0.00,0.00,
"CA004057172","1978-08-03",77.00,39.20,0.00,0.00,
"CA004057172","1978-08-04",86.00,46.40,0.00,0.00,
"CA004057172","1978-08-05",87.80,50.00,0.00,0.00,
"CA004057172","1978-08-06",84.20,50.00,0.00,0.00,
"CA004057172","1978-08-07",78.80,55.40,0.00,0.00,
"CA004057172","1978-08-08",80.60,50.00,0.00,0.00,
"CA004057172","1978-08-09",84.20,53.60,0.00,0.00,
"CA004057172","1978-08-10",95.00,53.60,0.00,0.00,
"CA004057172","1978-08-11",80.60,53.60,0.00,0.00,
"CA004057172","1978-08-12",84.20,53.60,2.00,0.00,